Content
SEND FEEDBACK

Daily
Averages
Monthly
Summary
Czech Republic

PRAGUE, CZECH REPUBLIC


Home > Europe > Czech Republic
Elevation: 1184 feet     Latitude: 50 06N     Longitude: 014 15E

WEATHER
 
SELECT A DAY
Number of Records: 319,765;   Date Range: 7/1/96 - 7/9/14
 
SHARE

PRINT THIS DATA

[ ← Previous Day ]
WEATHER ALMANAC - APRIL 18, 2013
[ Next Day → ]
[ °C ]   °F
Weather ElementAverageHighLow
Temperature64.3 °F78.8 °F (3:30 pm)51.8 °F (2:30 am)
Dewpoint48.7 °F53.6 °F (5:30 pm)44.6 °F (2:30 am)
Humidity58.4 %82 % (7:00 am)31 % (2:00 pm)
Barometer30.04 in30.15 in (12:30 am)29.95 in (6:30 pm)
Wind Speed9.2 mph17.3 mph (7:30 pm)
Weather ElementAverage
Visibility11.4 mi
Wind DirectionSSW (204 °)

Weather ElementTotal
Precipitation---
Cooling Degree Days0.3 (Base 65)
Growing Degree Days15.3 (Base 50)
Averaged from 52 records on April 18, 2013
WEATHER CONDITIONS BREAKOUT
WIND DIRECTION BREAKOUT
WEATHER BY HOUR - APRIL 18, 2013
[ °C ]   °F
Local TimeTemperatureDewpointHumidityBarometerVisibilityWind DirectionWind SpeedGust SpeedPrecipitationEventsConditions
12:30 AM55.4 °F46.4 °F72 %30.15 inSSE (160°)6.9 mphClear
1:00 AM53.6 °F46.4 °F77 %30.15 inSSE (160°)6.9 mphClear
1:30 AM55.4 °F46.4 °F72 %30.12 inSouth (170°)6.9 mphClear
2:00 AM56.0 °F46.0 °F61 %30.14 in22.0 miSouth (190°)6.7 mphClear
2:00 AM55.4 °F46.4 °F72 %30.12 inSouth (170°)5.8 mphClear
2:30 AM51.8 °F44.6 °F76 %30.12 inSSE (160°)6.9 mphClear
3:00 AM53.6 °F46.4 °F77 %30.12 inSouth (180°)9.2 mphClear
3:30 AM51.8 °F44.6 °F76 %30.12 inSouth (180°)9.2 mphClear
4:00 AM53.6 °F44.6 °F72 %30.12 inSouth (180°)9.2 mphClear
4:30 AM51.8 °F44.6 °F76 %30.12 inSouth (180°)8.1 mphClear
5:00 AM53.6 °F44.6 °F72 %30.09 inSouth (170°)6.9 mphClear
5:30 AM53.6 °F44.6 °F72 %30.09 inSouth (180°)5.8 mphClear
6:00 AM51.8 °F44.6 °F76 %30.09 inSouth (170°)5.8 mphClear
6:30 AM51.8 °F44.6 °F76 %30.09 inSouth (170°)6.9 mphClear
7:00 AM51.8 °F46.4 °F82 %30.06 inSouth (170°)8.1 mphClear
7:30 AM53.6 °F46.4 °F77 %30.06 inSouth (170°)8.1 mphClear
8:00 AM57.0 °F48.0 °F64 %30.08 in16.0 miSouth (170°)6.7 mphScattered Clouds
8:00 AM57.2 °F48.2 °F72 %30.06 inSouth (180°)9.2 mphClear
8:30 AM59.0 °F50.0 °F72 %30.06 inSouth (170°)9.2 mphClear
9:00 AM60.8 °F50.0 °F68 %30.06 inSouth (180°)8.1 mphClear
9:30 AM64.4 °F50.0 °F59 %30.06 inSouth (170°)10.4 mphClear
10:00 AM66.2 °F50.0 °F56 %30.06 inSouth (170°)10.4 mphClear
10:30 AM68.0 °F48.2 °F49 %30.06 inSouth (170°)9.2 mphClear
11:00 AM69.8 °F48.2 °F46 %30.06 inSouth (180°)6.9 mphClear
11:30 AM69.8 °F48.2 °F46 %30.06 inSouth (170°)5.8 mphClear
12:00 PM71.6 °F48.2 °F43 %30.06 inSSW (200°)8.1 mphClear
12:30 PM71.6 °F50.0 °F46 %30.04 inSW (220°)11.5 mphClear
1:00 PM71.6 °F48.2 °F43 %30.04 inSSW (210°)6.9 mphClear
1:30 PM73.4 °F50.0 °F44 %30.04 inSSW (200°)9.2 mphClear
2:00 PM74.0 °F50.0 °F31 %29.97 in25.0 miSouth (170°)6.7 mphScattered Clouds
2:00 PM73.4 °F50.0 °F44 %30.01 inSouth (170°)8.1 mphClear
2:30 PM75.2 °F50.0 °F41 %30.01 in6.2 miSouth (180°)8.1 mphPartly Cloudy
3:00 PM77.0 °F48.2 °F36 %30.01 inSouth (190°)6.9 mphClear
3:30 PM78.8 °F48.2 °F34 %29.98 inSouth (190°)4.6 mphClear
4:00 PM77.0 °F50.0 °F39 %29.98 inWSW (250°)10.4 mphClear
4:30 PM75.2 °F50.0 °F41 %29.98 inWSW (250°)13.8 mphClear
5:00 PM77.0 °F51.8 °F41 %29.98 inWSW (240°)13.8 mphClear
5:30 PM77.0 °F53.6 °F44 %29.98 inWSW (240°)16.1 mphClear
6:00 PM77.0 °F51.8 °F41 %29.98 inSW (230°)15.0 mphClear
6:30 PM75.2 °F51.8 °F44 %29.95 inSW (230°)15.0 mphClear
7:00 PM73.4 °F51.8 °F47 %29.95 in6.2 miWSW (240°)16.1 mphPartly Cloudy
7:30 PM71.6 °F51.8 °F50 %29.98 in6.2 miWSW (240°)17.3 mphPartly Cloudy
8:00 PM70.0 °F51.0 °F40 %29.95 in19.0 miWSW (240°)13.4 mphScattered Clouds
8:00 PM69.8 °F51.8 °F53 %29.98 inSW (230°)11.5 mphClear
8:30 PM68.0 °F51.8 °F56 %29.98 in6.2 miWSW (240°)11.5 mphThunderstormPartly Cloudy
8:37 PM66.2 °F51.8 °F60 %30.01 in6.2 miWest (270°)16.1 mphThunderstormThunderstorm
9:00 PM66.2 °F50.0 °F56 %30.01 in6.2 miWNW (290°)11.5 mphPartly Cloudy
9:30 PM62.6 °F50.0 °F63 %30.01 in6.2 miWSW (250°)4.6 mphPartly Cloudy
10:00 PM60.8 °F50.0 °F68 %30.01 inSW (230°)8.1 mphClear
10:30 PM62.6 °F50.0 °F63 %30.01 inWest (260°)10.4 mphClear
11:00 PM59.0 °F50.0 °F72 %30.04 inWNW (300°)5.8 mphClear
11:30 PM59.0 °F51.8 °F77 %30.04 inNNW (330°)5.8 mphClear
Hourly data recorded from LKPR, located miles away from Prague, Czech Republic







STORIES FROM OUR PARTNERS